DW5212 Weather Reports


time (UTC)temp
C
wind
direction
speed
KPH
gust
KPH
rain 1hr
cm
rain 24hr
cm
rain mn
cm
humidity
%
barometer
mb
20260508045509 16 51 0.0 0.0 0.00 0.00 0.00 90 1015.0
20260508044508 16 47 0.0 0.0 0.00 0.00 0.00 90 1015.9
20260508044010 16 47 0.0 0.0 0.00 0.00 0.00 90 1015.7
20260508043508 16 47 0.0 0.0 0.00 0.00 0.00 90 1015.4
20260508042507 16 47 0.0 0.0 0.00 0.00 0.00 90 1016.0
20260508042010 16 47 0.0 0.0 0.00 0.00 0.00 89 1016.0
20260508041510 16 47 0.0 0.0 0.00 0.00 0.00 90 1016.1
20260508041009 16 47 0.0 0.0 0.00 0.00 0.00 90 1016.0
20260508040015 17 47 0.0 0.0 0.00 0.00 0.00 89 1016.4
20260508034510 17 65 0.0 0.0 0.00 0.00 0.00 89 1015.9
20260508034010 17 65 0.0 0.0 0.00 0.00 0.00 89 1015.8
20260508033508 17 65 0.0 0.0 0.00 0.00 0.00 89 1015.2
20260508032508 17 65 0.0 0.0 0.00 0.00 0.00 89 1015.4
20260508032009 17 65 0.0 0.0 0.00 0.00 0.00 89 1015.9
20260508031509 17 65 0.0 0.0 0.00 0.00 0.00 89 1015.9
20260508030509 17 65 0.0 0.0 0.00 0.00 0.00 89 1016.0
20260508030011 17 65 0.0 0.0 0.00 0.00 0.00 88 1016.0
20260508025507 17 65 0.0 0.0 0.00 0.00 0.00 88 1015.7
20260508025009 17 65 0.0 0.0 0.00 0.00 0.00 88 1015.3
20260508024509 17 65 0.0 0.0 0.00 0.00 0.00 88 1015.5
20260508024009 17 65 0.0 0.0 0.00 0.00 0.00 88 1014.6
20260508023010 17 74 0.0 0.0 0.00 0.00 0.00 89 1014.7
20260508022508 17 74 0.0 0.0 0.00 0.00 0.00 88 1014.7
20260508022010 17 74 0.0 0.0 0.00 0.00 0.00 88 1015.1
20260508021508 17 76 0.0 0.0 0.00 0.00 0.00 88 1014.7
20260508020507 17 76 0.0 0.0 0.00 0.00 0.00 88 1015.1
20260508015507 17 86 0.0 0.0 0.00 0.00 0.00 88 1014.9
20260508015009 17 86 0.0 0.0 0.00 0.00 0.00 87 1015.0
20260508014009 18 86 0.0 0.0 0.00 0.00 0.00 87 1015.2
20260508013508 18 86 0.0 0.0 0.00 0.00 0.00 87 1015.3
20260508013009 18 86 0.0 0.0 0.00 0.00 0.00 87 1015.4
20260508012508 18 86 0.0 0.0 0.00 0.00 0.00 86 1015.1
20260508012009 18 86 0.0 0.0 0.00 0.00 0.00 86 1014.7
20260508011508 18 86 0.0 0.0 0.00 0.00 0.00 86 1014.7
20260508011009 18 86 0.0 0.0 0.00 0.00 0.00 85 1015.0
20260508010508 18 86 0.0 0.0 0.00 0.00 0.00 85 1015.4
20260508010011 18 86 0.0 0.0 0.00 0.00 0.00 85 1015.3
20260508005507 18 86 0.0 0.0 0.00 0.00 0.00 85 1015.0
20260508005009 18 86 0.0 0.0 0.00 0.00 0.00 85 1014.8
20260508004508 18 86 0.0 0.0 0.00 0.00 0.00 84 1014.9
20260508004008 18 86 0.0 0.0 0.00 0.00 0.00 83 1014.6
20260508003507 19 86 0.0 0.0 0.00 0.00 0.00 83 1014.4
20260508003010 19 86 0.0 0.0 0.00 0.00 0.00 82 1014.8
20260508002507 19 86 0.0 0.0 0.00 0.00 0.00 82 1014.8
20260508002009 19 86 0.0 0.0 0.00 0.00 0.00 82 1014.8
20260508001509 19 86 0.0 0.0 0.00 0.00 0.00 81 1014.9
20260508001009 19 86 0.0 0.0 0.00 0.00 0.00 81 1014.8
20260508000508 20 86 0.0 0.0 0.00 0.00 0.00 80 1014.9
20260508000011 20 86 0.0 0.0 0.00 0.00 0.00 80 1014.8
20260507235508 20 86 0.0 0.0 0.00 0.00 0.00 79 1014.8
20260507235009 20 86 0.0 0.0 0.00 0.00 0.00 80 1014.9
20260507234508 20 86 0.0 1.6 0.00 0.00 0.00 79 1014.9
20260507234010 20 86 0.0 1.6 0.00 0.00 0.00 78 1014.8
20260507233507 20 86 0.0 0.0 0.00 0.00 0.00 79 1015.3
20260507233010 20 86 0.0 0.0 0.00 0.00 0.00 79 1015.8
20260507232508 20 86 0.0 0.0 0.00 0.00 0.00 80 1015.8
20260507232009 20 86 0.0 6.4 0.00 0.00 0.00 79 1015.8
20260507231508 20 86 0.0 6.4 0.00 0.00 0.00 79 1015.0
20260507231009 20 134 1.6 3.2 0.00 0.00 0.00 78 1014.6
20260507230508 20 47 0.0 3.2 0.00 0.00 0.00 78 1014.6
20260507230010 20 347 0.0 1.6 0.00 0.00 0.00 79 1015.3
20260507225008 20 347 0.0 1.6 0.00 0.00 0.00 78 1015.0
20260507224507 20 347 0.0 6.4 0.00 0.00 0.00 77 1014.9
20260507224008 20 58 0.0 1.6 0.00 0.00 0.00 77 1014.9
20260507223506 20 58 0.0 1.6 0.00 0.00 0.00 77 1015.1
20260507223008 20 63 0.0 3.2 0.00 0.00 0.00 77 1015.1
20260507222506 20 63 0.0 3.2 0.00 0.00 0.00 76 1015.2
20260507222008 20 34 0.0 3.2 0.00 0.00 0.00 76 1014.9
20260507221508 21 34 0.0 3.2 0.00 0.00 0.00 77 1015.2
20260507221007 20 36 0.0 0.0 0.00 0.00 0.00 77 1015.0
20260507220507 21 40 0.0 3.2 0.00 0.00 0.00 76 1015.1
20260507220009 20 112 0.0 3.2 0.00 0.00 0.00 76 1015.0
20260507215507 20 111 1.6 3.2 0.00 0.00 0.00 77 1015.0
20260507215007 20 124 1.6 4.8 0.00 0.00 0.00 77 1014.9
20260507214508 20 123 0.0 4.8 0.00 0.00 0.00 78 1014.9
20260507214009 20 139 0.0 0.0 0.00 0.00 0.00 77 1015.0
20260507213506 20 29 0.0 0.0 0.00 0.00 0.00 77 1015.2
20260507213009 20 32 0.0 0.0 0.00 0.00 0.00 78 1015.2
20260507212508 20 34 0.0 0.0 0.00 0.00 0.00 77 1015.2
20260507212007 20 35 0.0 0.0 0.00 0.00 0.00 77 1015.5
20260507211507 20 35 0.0 0.0 0.00 0.00 0.00 76 1015.5
20260507210010 20 35 0.0 0.0 0.00 0.00 0.00 75 1015.7
20260507205508 20 36 0.0 0.0 0.00 0.00 0.00 77 1015.7
20260507205009 20 36 0.0 0.0 0.00 0.00 0.00 76 1015.7
20260507204509 20 48 0.0 0.0 0.00 0.00 0.00 75 1015.8
20260507204010 20 48 0.0 0.0 0.00 0.00 0.00 76 1016.1
20260507203507 20 104 0.0 0.0 0.00 0.00 0.00 75 1016.0
20260507203011 20 105 0.0 0.0 0.00 0.00 0.00 75 1016.0
20260507202508 20 104 0.0 0.0 0.00 0.00 0.00 74 1016.1
20260507201510 20 123 0.0 0.0 0.00 0.00 0.00 74 1016.2
20260507201009 20 125 0.0 0.0 0.00 0.00 0.00 74 1016.1
20260507200011 20 115 1.6 3.2 0.00 0.00 0.00 73 1016.3
20260507195507 20 5 0.0 3.2 0.00 0.00 0.00 74 1016.1
20260507194507 20 120 0.0 6.4 0.00 0.00 0.00 75 1016.2
20260507194009 20 111 0.0 3.2 0.00 0.00 0.00 75 1016.3
20260507193506 20 110 0.0 3.2 0.00 0.00 0.00 74 1016.3
20260507193009 20 66 0.0 3.2 0.00 0.00 0.00 74 1016.3
20260507192507 20 67 1.6 3.2 0.00 0.00 0.00 73 1016.4
20260507191506 20 67 1.6 4.8 0.00 0.00 0.00 74 1016.3
20260507191007 20 51 1.6 4.8 0.00 0.00 0.00 74 1016.3
20260507190507 20 118 1.6 6.4 0.00 0.00 0.00 73 1016.2
20260507185508 20 74 1.6 4.8 0.00 0.00 0.00 74 1016.3
20260507185010 20 67 1.6 6.4 0.00 0.00 0.00 74 1016.1
20260507184511 20 125 1.6 6.4 0.00 0.00 0.00 74 1016.4
20260507184010 20 284 1.6 4.8 0.00 0.00 0.00 76 1016.5
20260507183509 20 325 1.6 6.4 0.00 0.00 0.00 76 1016.6
20260507183014 19 308 3.2 6.4 0.00 0.00 0.00 78 1016.6
20260507182509 18 31 1.6 6.4 0.00 0.00 0.00 79 1016.5
20260507182010 18 251 1.6 6.4 0.00 0.00 0.00 79 1016.5
20260507181510 17 323 0.0 0.0 0.00 0.00 0.00 80 1016.7
20260507181010 17 202 1.6 4.8 0.00 0.00 0.00 81 1017.0
20260507180508 17 199 1.6 6.4 0.00 0.00 0.00 81 1016.8
20260507180011 17 24 1.6 6.4 0.00 0.00 0.00 81 1016.9
20260507175506 17 19 1.6 4.8 0.00 0.00 0.00 82 1017.1
20260507175007 17 19 1.6 4.8 0.00 0.00 0.00 81 1017.0
20260507174510 17 70 1.6 4.8 0.00 0.00 0.00 82 1016.8
20260507174010 16 334 0.0 3.2 0.00 0.00 0.00 83 1017.0
20260507173508 16 148 1.6 4.8 0.00 0.00 0.00 83 1016.9
20260507173010 16 31 1.6 4.8 0.00 0.00 0.00 83 1016.8
20260507172506 16 44 0.0 6.4 0.00 0.00 0.00 83 1017.1
20260507172008 16 279 0.0 6.4 0.00 0.00 0.00 83 1017.2
20260507171508 16 5 0.0 0.0 0.00 0.00 0.00 84 1017.3
20260507171008 16 355 0.0 0.0 0.00 0.00 0.00 84 1017.6
20260507165506 15 61 0.0 0.0 0.00 0.00 0.00 84 1017.8
20260507164508 15 75 0.0 0.0 0.00 0.00 0.00 84 1017.8
20260507163507 16 24 0.0 0.0 0.00 0.00 0.00 84 1017.6
20260507163008 16 68 0.0 0.0 0.00 0.00 0.00 84 1017.6
20260507162507 16 15 0.0 3.2 0.00 0.00 0.00 85 1017.6
20260507162009 15 32 1.6 3.2 0.00 0.00 0.00 85 1017.7
20260507161509 15 121 1.6 3.2 0.00 0.00 0.00 85 1017.8
20260507161009 15 5 1.6 3.2 0.00 0.00 0.00 85 1017.9
20260507160508 15 5 1.6 4.8 0.00 0.00 0.00 85 1017.8
20260507160009 15 10 1.6 4.8 0.00 0.00 0.00 85 1017.9
20260507155508 15 355 1.6 4.8 0.00 0.00 0.00 85 1017.6
20260507155008 15 5 1.6 4.8 0.00 0.00 0.00 86 1017.6
20260507154509 15 24 1.6 3.2 0.00 0.00 0.00 86 1017.4
20260507154010 15 5 0.0 3.2 0.00 0.00 0.00 86 1017.7
20260507153009 15 34 0.0 3.2 0.00 0.00 0.00 86 1017.8
20260507152507 15 72 0.0 0.0 0.00 0.00 0.00 87 1017.7
20260507151507 14 19 1.6 6.4 0.00 0.00 0.00 86 1017.6
20260507151007 15 22 1.6 6.4 0.00 0.00 0.00 86 1017.8
20260507150507 15 14 1.6 4.8 0.00 0.00 0.00 86 1017.6
20260507150009 15 5 1.6 4.8 0.00 0.00 0.00 86 1017.8
20260507145509 15 28 0.0 4.8 0.00 0.00 0.00 87 1018.1
20260507145008 15 29 0.0 4.8 0.00 0.00 0.00 87 1017.8
20260507144007 15 28 0.0 0.0 0.00 0.00 0.00 87 1017.7
20260507143509 15 15 0.0 0.0 0.00 0.00 0.00 87 1017.3
20260507143009 14 17 1.6 4.8 0.00 0.00 0.00 87 1017.3
20260507142008 14 348 1.6 4.8 0.00 0.00 0.00 88 1017.1
20260507141508 14 24 1.6 4.8 0.00 0.00 0.00 87 1017.1
20260507141007 14 32 0.0 4.8 0.00 0.00 0.00 87 1017.2
20260507140507 14 9 1.6 3.2 0.00 0.00 0.00 87 1017.4
20260507140010 14 350 1.6 4.8 0.00 0.00 0.00 88 1017.4
20260507134507 14 16 1.6 4.8 0.00 0.00 0.00 88 1017.3
20260507134009 14 30 1.6 4.8 0.00 0.00 0.00 89 1017.3
20260507133507 13 40 0.0 3.2 0.00 0.00 0.00 89 1017.1
20260507133010 13 338 0.0 0.0 0.00 0.00 0.00 89 1017.1
20260507132508 13 338 0.0 0.0 0.00 0.00 0.00 89 1017.1
20260507132009 13 304 0.0 0.0 0.00 0.00 0.00 89 1017.3
20260507131508 13 11 0.0 0.0 0.00 0.00 0.00 89 1016.9
20260507130507 13 34 0.0 3.2 0.00 0.00 0.00 89 1017.0
20260507130012 13 26 0.0 0.0 0.00 0.00 0.00 89 1016.8
20260507125008 13 49 0.0 0.0 0.00 0.00 0.00 90 1016.7
20260507124509 13 54 0.0 0.0 0.00 0.00 0.00 90 1016.8
20260507124009 13 70 0.0 0.0 0.00 0.00 0.00 90 1016.7
20260507123508 13 82 0.0 0.0 0.00 0.00 0.00 90 1016.5
20260507123010 13 86 0.0 0.0 0.00 0.00 0.00 90 1016.6
20260507122506 13 86 0.0 0.0 0.00 0.00 0.00 90 1016.6
20260507122008 13 63 0.0 0.0 0.00 0.00 0.00 90 1016.5
20260507121509 13 40 0.0 0.0 0.00 0.00 0.00 90 1016.3
20260507121008 13 40 0.0 0.0 0.00 0.00 0.00 90 1016.1
20260507120507 13 40 0.0 0.0 0.00 0.00 0.00 91 1016.2
20260507120011 13 40 0.0 0.0 0.00 0.00 0.00 91 1016.0
20260507115506 13 40 0.0 0.0 0.00 0.00 0.00 91 1015.9
20260507114507 13 30 0.0 0.0 0.00 0.00 0.00 91 1015.8
20260507114009 13 32 0.0 0.0 0.00 0.00 0.00 91 1015.8
20260507113008 13 40 0.0 0.0 0.00 0.00 0.00 91 1015.7
20260507112506 13 46 0.0 0.0 0.00 0.00 0.00 91 1015.6
20260507112007 13 69 0.0 0.0 0.00 0.00 0.00 91 1015.3
20260507111507 13 69 0.0 0.0 0.00 0.00 0.00 91 1015.5
20260507111009 13 69 0.0 0.0 0.00 0.00 0.00 91 1015.8
20260507110506 13 74 0.0 0.0 0.00 0.00 0.00 91 1015.7
20260507110010 13 75 0.0 0.0 0.00 0.00 0.00 91 1015.6
20260507105008 13 75 0.0 0.0 0.00 0.00 0.00 91 1015.5
20260507104507 13 74 0.0 0.0 0.00 0.00 0.00 91 1015.3
20260507104006 13 74 0.0 0.0 0.00 0.00 0.00 91 1015.4
20260507103507 13 328 0.0 0.0 0.00 0.00 0.00 91 1015.7
20260507103008 13 325 0.0 0.0 0.00 0.00 0.00 91 1015.6
20260507102506 13 259 0.0 0.0 0.00 0.00 0.00 91 1015.3
20260507102007 13 71 0.0 0.0 0.00 0.00 0.00 91 1015.0
20260507101507 13 71 0.0 0.0 0.00 0.00 0.00 91 1014.8
20260507101007 13 128 0.0 0.0 0.00 0.00 0.00 91 1015.1
20260507100508 13 128 0.0 0.0 0.00 0.00 0.00 91 1015.4
20260507100010 13 22 0.0 0.0 0.00 0.00 0.00 91 1015.5
20260507095505 13 24 0.0 0.0 0.00 0.00 0.00 91 1015.4
20260507095006 13 20 0.0 0.0 0.00 0.00 0.00 91 1015.2
20260507094508 13 292 0.0 0.0 0.00 0.00 0.00 91 1015.2
20260507094006 13 234 0.0 0.0 0.00 0.00 0.00 91 1015.1
20260507093506 13 355 0.0 0.0 0.00 0.00 0.00 91 1015.0
20260507093008 13 341 0.0 0.0 0.00 0.00 0.00 91 1014.9
20260507092506 13 348 0.0 0.0 0.00 0.00 0.00 91 1015.0
20260507092007 13 348 0.0 0.0 0.00 0.00 0.00 91 1015.1
20260507091506 13 348 0.0 0.0 0.00 0.00 0.00 91 1015.3
20260507091007 13 234 0.0 0.0 0.00 0.00 0.00 91 1015.2
20260507090506 13 18 0.0 1.6 0.00 0.00 0.00 91 1015.0
20260507090009 13 18 1.6 3.2 0.00 0.00 0.00 91 1014.9
20260507085506 13 18 1.6 3.2 0.00 0.00 0.00 91 1015.0
20260507084506 13 18 1.6 4.8 0.00 0.00 0.00 91 1015.1
20260507084007 13 342 1.6 4.8 0.00 0.00 0.00 91 1015.2
20260507083505 13 21 0.0 3.2 0.00 0.00 0.00 91 1014.8
20260507083007 13 45 0.0 3.2 0.00 0.00 0.00 91 1015.0
20260507082507 13 93 0.0 0.0 0.00 0.00 0.00 91 1014.9
20260507082006 13 13 0.0 0.0 0.00 0.00 0.00 91 1015.1
20260507081506 13 5 0.0 0.0 0.00 0.00 0.00 91 1015.1
20260507081006 13 12 0.0 3.2 0.00 0.00 0.00 91 1015.0
20260507080506 13 12 1.6 6.4 0.00 0.00 0.00 91 1015.0
20260507080010 13 12 0.0 6.4 0.00 0.00 0.00 91 1014.7
20260507075507 13 34 0.0 0.0 0.00 0.00 0.00 91 1014.7
20260507074508 13 35 0.0 0.0 0.00 0.00 0.00 91 1014.8
20260507074008 13 17 0.0 0.0 0.00 0.00 0.00 91 1014.6
20260507073506 13 17 0.0 0.0 0.00 0.00 0.00 91 1014.4
20260507073008 13 18 1.6 4.8 0.00 0.00 0.00 91 1014.5
20260507071507 13 76 0.0 0.0 0.00 0.00 0.00 90 1014.9
20260507071008 13 78 0.0 0.0 0.00 0.00 0.00 90 1014.9
20260507070506 14 5 1.6 3.2 0.00 0.00 0.00 90 1015.2
20260507070013 14 5 1.6 4.8 0.00 0.00 0.00 90 1015.4
20260507065507 14 12 1.6 6.4 0.00 0.00 0.00 90 1015.2
20260507065006 14 18 0.0 6.4 0.00 0.00 0.00 90 1015.2
20260507064508 14 21 0.0 0.0 0.00 0.00 0.00 90 1015.1
20260507063009 14 26 0.0 0.0 0.00 0.00 0.00 90 1014.8
20260507061506 14 9 1.6 4.8 0.00 0.00 0.00 90 1014.9
20260507061007 14 5 1.6 4.8 0.00 0.00 0.00 90 1015.1
20260507060506 14 23 1.6 4.8 0.00 0.00 0.00 90 1015.2
20260507055508 15 284 1.6 4.8 0.00 0.00 0.00 90 1014.9
20260507055009 15 355 1.6 4.8 0.00 0.00 0.00 90 1014.7
20260507054509 15 22 3.2 4.8 0.00 0.00 0.00 90 1014.4
20260507054009 15 22 1.6 6.4 0.00 0.00 0.00 90 1014.6
20260507053509 15 5 0.0 6.4 0.00 0.00 0.00 90 1014.6
20260507053009 15 45 0.0 3.2 0.00 0.00 0.00 90 1014.5
20260507052507 15 21 1.6 4.8 0.00 0.00 0.00 90 1014.7
20260507052008 15 22 1.6 6.4 0.00 0.00 0.00 90 1014.7
20260507051010 15 167 1.6 6.4 0.00 0.00 0.00 90 1014.4
20260507050508 15 23 1.6 4.8 0.00 0.00 0.00 90 1014.3